Home   Weather   Greenwich Borough   Past weeks

Flag for United Kingdom Past Weather in Greenwich Borough, England, United Kingdom — Yesterday and Last 2 Weeks

Now
68 °F

Passing clouds.


Feels Like: 68 °F
Forecast: 64 / 74 °F
Wind: 14 mph from Southwest

Location: Biggin Hill Airport

Current Time: Aug 16, 2017 at 2:26:23 pm

Latest Report: Aug 16, 2017 at 1:50 pm


Visibility: N/A

Pressure: 30.12 "Hg

Humidity: 56%

Dew Point: 52 °F

Location of Greenwich BoroughLocation

Past Weather in Greenwich Borough — Graph

°F

Greenwich Borough Temperature Yesterday

Maximum temperature yesterday: 73 °F (at 4:50 pm)
Minimum temperature yesterday: 59 °F (at 5:50 am)
Average temperature yesterday: 66 °F

High & Low Weather Summary for the Past Weeks

 TemperatureHumidityPressure
High73 °F (Aug 15, 4:50 pm)100% (Aug 2, 2:50 pm)30.24 "Hg (Aug 2, 2:50 pm)
Low52 °F (Aug 14, 5:50 am)40% (Aug 13, 4:20 pm)29.71 "Hg (Aug 3, 6:20 am)
Average63 °F75%30.01 "Hg
* Reported Aug 1 12:20 pm — Aug 16 12:50 pm, Greenwich Borough. Weather by CustomWeather, © 2017

Note: Actual official high and low records may vary slightly from our data, if they occured in-between our weather recording intervals... More about our weather records

Advertising

Greenwich Borough Weather History for the Previous 24 Hours

Scroll right to see more
 ConditionsComfort  
Time TempWeatherWind HumidityBarometerVisibility
12:50 pm
Wed, Aug 16
66 °FScattered clouds.14 mph60%30.12 "HgN/A
12:20 pm66 °FScattered clouds.13 mph68%30.12 "HgN/A
11:50 am64 °FScattered clouds.13 mph73%30.12 "HgN/A
11:20 am64 °FPassing clouds.10 mph73%30.12 "HgN/A
10:50 am63 °FPassing clouds.13 mph83%30.15 "HgN/A
10:20 am63 °FPassing clouds.9 mph83%30.15 "HgN/A
9:50 am63 °FSunny.13 mph83%30.15 "Hg10 mi
9:20 am63 °FSunny.9 mph73%30.15 "Hg10 mi
8:50 am61 °FSunny.9 mph72%30.12 "Hg10 mi
7:50 am59 °FSunny.6 mph72%30.12 "Hg10 mi
7:20 am57 °FSunny.5 mph77%30.12 "Hg10 mi
6:50 am54 °FSunny.5 mph82%30.12 "Hg10 mi
6:20 am52 °FSunny.2 mph88%30.12 "Hg10 mi
10:20 pm
Tue, Aug 15
61 °FClear.6 mph63%30.09 "Hg10 mi
9:50 pm63 °FClear.6 mph59%30.09 "Hg10 mi
9:20 pm63 °FClear.6 mph64%30.09 "Hg10 mi
8:50 pm64 °FClear.6 mph56%30.07 "Hg10 mi
8:20 pm66 °FSunny.6 mph56%30.07 "Hg10 mi
7:50 pm68 °FPassing clouds.6 mph56%30.04 "HgN/A
7:20 pm70 °FPassing clouds.7 mph53%30.04 "HgN/A
6:50 pm70 °FPassing clouds.8 mph53%30.01 "HgN/A
6:20 pm70 °FPassing clouds.7 mph53%30.01 "HgN/A
5:50 pm70 °FPassing clouds.7 mph53%30.01 "HgN/A
5:20 pm72 °FPassing clouds.8 mph50%30.01 "HgN/A
4:50 pm73 °FPassing clouds.7 mph47%30.01 "HgN/A
4:20 pm72 °FPassing clouds.8 mph47%30.01 "HgN/A
3:50 pm72 °FScattered clouds.10 mph47%30.01 "HgN/A
3:20 pm72 °FScattered clouds.9 mph53%30.01 "HgN/A
2:50 pm70 °FScattered clouds.10 mph57%30.01 "HgN/A
2:20 pm70 °FScattered clouds.10 mph60%30.01 "HgN/A
Weather by CustomWeather, © 2017

See weather overviewHow to use our weather pages